Home   Weather   49°00'N, 15°20'E   Past weeks
Flag for Czech Republic

Past Weather in 49°00'N, 15°20'E, Czech Republic — Yesterday and Last 2 Weeks

Now
54 °F

Fog.


Feels Like: N/A
Forecast: 62 / 49 °F
Wind: N/A

Location: Kocelovice

Current Time: Oct 22, 2019 at 9:07:29 pm

Latest Report: Oct 22, 2019 at 8:00 pm


Visibility: 1 mi

Pressure: 30.23 "Hg

Humidity: 98%

Dew Point: 54 °F

Location of 49°00'N, 15°20'ELocation

Past Weather in 49°00'N, 15°20'E — Graph

°F

49°00'N, 15°20'E Temperature Yesterday

Maximum temperature yesterday: 64 °F (at 3:00 pm)
Minimum temperature yesterday: 49 °F (at 8:00 am)
Average temperature yesterday: 54 °F

High & Low Weather Summary for the Past Weeks

 TemperatureHumidityPressure
High73 °F (Oct 13, 4:00 pm)100% (Oct 9, 1:00 am)30.27 "Hg (Oct 9, 1:00 am)
Low34 °F (Oct 8, 3:00 am)45% (Oct 17, 4:00 pm)29.76 "Hg (Oct 15, 6:00 pm)
Average51 °F86%30.01 "Hg
* Reported Oct 7 7:00 pm — Oct 22 7:00 pm, 49°00'N, 15°20'E. Weather by CustomWeather, © 2019

Note: Actual official high and low records may vary slightly from our data, if they occured in-between our weather recording intervals... More about our weather records

Advertising

49°00'N, 15°20'E Weather History for the Previous 24 Hours

Scroll right to see more
 ConditionsComfort  
Time TempWeatherWind HumidityBarometerVisibility
7:00 pm
Tue, Oct 22
55 °FFog.2 mph99%30.23 "Hg1 mi
6:00 pm56 °FFog.N/A98%30.23 "Hg2 mi
5:00 pm56 °FFog.2 mph97%30.22 "Hg2 mi
4:00 pm57 °FFog.1 mph93%30.22 "Hg2 mi
3:00 pm56 °FFog.1 mph98%30.23 "Hg2 mi
2:00 pm55 °FFog.2 mph100%30.24 "Hg1 mi
1:00 pm54 °FFog.N/A99%30.24 "Hg1 mi
12:00 pm53 °FFog.2 mph99%30.27 "Hg1 mi
11:00 am51 °FFog.2 mph100%30.26 "Hg0 mi
10:00 am51 °FFog.N/A100%30.24 "Hg0 mi
9:00 am48 °FFog.N/A99%30.25 "Hg0 mi
8:00 am46 °FFog.3 mph100%30.25 "Hg0 mi
7:00 am47 °FDuststorm.2 mph100%30.24 "Hg0 mi
6:00 am45 °FDuststorm.1 mph100%30.24 "Hg1 mi
5:00 am44 °FDuststorm.N/A98%30.24 "Hg0 mi
4:00 am48 °FCool.1 mph97%30.22 "Hg5 mi
3:00 am49 °FFog.3 mph98%30.22 "Hg6 mi
2:00 am48 °FFog.3 mph99%30.22 "Hg3 mi
1:00 am49 °FFog.N/A98%30.20 "Hg4 mi
12:00 am50 °FCool.2 mph96%30.20 "Hg9 mi
11:00 pm
Mon, Oct 21
50 °FCool.2 mph99%30.19 "Hg1 mi
10:00 pm51 °FFog.N/A100%30.18 "Hg1 mi
9:00 pm54 °FFog.2 mph94%30.17 "Hg5 mi
Weather by CustomWeather, © 2019

See weather overview